Location: Gisborne
(38.6530°S, 178.0040°E)
Time: 17:17:59
(UTC+12:00)

Meteor 1-25 Rocket - Pass Details

Date: 24 January 2019
Orbit: 837 x 891 km, 81.2° (Epoch: 18 April)

Event Time Altitude Azimuth Distance (km) Brightness Sun altitude
Rises 23:16:22 0° 192° (SSW) 3,519 8.6 -25.3°
Reaches altitude 10° 23:18:50 10° 194° (SSW) 2,578 7.6 -25.5°
Maximum altitude 23:24:42 71° 276° (W) 950 4.4 -26.1°
Enters shadow 23:25:47 57° 333° (NNW) 1,050 4.4 -26.2°
